Regional Weather Roundup
Issued by NWS

Home | Current Version | Previous Version | Graphics & Text | Print | Product List | Glossary On
Versions: 1 2 3 4 5 6 7 8 9 10 11 12 13 14 15 16 17 18 19 20 21 22 23 24 25 26 27 28 29 30 31 32 33 34 35 36 37 38 39 40 41 42 43 44 45 46 47 48 49 50
000
ASUS43 KBIS 211301
RWRND

NORTH DAKOTA REGIONAL WEATHER ROUNDUP
NATIONAL WEATHER SERVICE BISMARCK ND
800 AM CDT TUE APR 21 2015

NOTE: "FAIR" INDICATES FEW OR NO CLOUDS BELOW 12,000 FEET WITH NO
SIGNIFICANT WEATHER AND/OR OBSTRUCTIONS TO VISIBILITY.


NDZ001>003-009>011-017-211400-
NORTHWEST NORTH DAKOTA

CITY           SKY/WX    TMP DP  RH WIND       PRES   REMARKS
WILLISTON      CLOUDY    34  28  79 NE7       29.91R
MINOT          SUNNY     30  22  72 NW14      29.88R WCI  19
MINOT AFB      SUNNY     30  26  87 N9        29.88R
$$

NDZ018>021-031>035-040>046-211400-
SOUTHWEST NORTH DAKOTA

CITY           SKY/WX    TMP DP  RH WIND       PRES   REMARKS
BISMARCK       MOSUNNY   34  29  82 NW8       29.86R
DICKINSON      MOSUNNY   28  21  75 E5        29.83R
GARRISON         N/A     27  23  85 N8        29.86R WCI  19
HETTINGER ARPT MOSUNNY   30  20  66 E12       29.82R
$$

NDZ004>008-012>016-024-026-027-054-211400-
NORTHEAST NORTH DAKOTA

CITY           SKY/WX    TMP DP  RH WIND       PRES   REMARKS
GRAND FORKS    CLOUDY    32  26  78 N25G32    29.71R WCI  19
GRND FRKS AFB  DRIZZLE   32  26  77 N24G30    29.72R WCI  19
DEVILS LAKE    CLOUDY    32  21  64 N23G30    29.78R WCI  19
$$

NDZ022-023-025-028>030-036>039-047>053-211400-
SOUTHEAST NORTH DAKOTA

CITY           SKY/WX    TMP DP  RH WIND       PRES   REMARKS
FARGO          CLOUDY    34  27  75 NW24      29.69R
JAMESTOWN      CLOUDY    34  24  67 N22       29.77R
$$




USA.gov is the U.S. government's official web portal to all federal, state and local government web resources and services.